Terminal Aerodrome Forecast
Issued by NWS

Home | Current Version | Previous Version | Text Only | Print | Product List | Glossary On
Versions: 1 2 3 4 5 6 7 8 9 10 11 12 13 14 15 16 17 18 19 20 21 22 23 24 25 26
000
FTUS45 KREV 212000 AAA
TAFTRK
TAF AMD
KTRK 212009Z 2120/2218 29010G20KT P6SM FEW050
     FM212200 27010G20KT P6SM FEW050
     FM220100 28009KT P6SM SKC
     FM220400 VRB03KT P6SM SKC=

USA.gov is the U.S. government's official web portal to all federal, state and local government web resources and services.